Location: Unspecified
(0.0000°N, 0.0000°E)
Time: 09:03:20
(UTC+00:00)

Tiros 1 - All Passes

Search period start: 03 April 2020 00:00
Search period end: 13 April 2020 00:00
Orbit: 630 x 664 km, 48.4° (Epoch: 03 April)

Date Brightness Start Highest point End Pass type
(mag) Time Alt. Az. Time Alt. Az. Time Alt. Az.
03 Apr - 07:17:56 10° SW 07:22:38 86° SE 07:27:21 10° NE daylight
03 Apr - 17:51:32 10° NNE 17:53:37 13° NE 17:55:43 10° ENE daylight
03 Apr - 19:31:08 10° NW 19:35:42 50° SW 19:40:16 10° SSE visible
04 Apr - 06:02:56 10° S 06:06:35 22° SE 06:10:14 10° ENE daylight
04 Apr - 07:44:36 10° WSW 07:48:36 28° NW 07:52:38 10° N daylight
04 Apr - 18:15:14 10° NNW 18:19:41 40° NE 18:24:06 10° ESE daylight
04 Apr - 19:58:52 10° W 20:01:43 16° SW 20:04:32 10° SSW visible
05 Apr - 06:27:54 10° SW 06:32:34 76° SE 06:37:15 10° NE daylight
05 Apr - 17:02:06 10° NNE 17:03:32 11° NE 17:04:58 10° ENE daylight
05 Apr - 18:40:59 10° NW 18:45:38 58° SW 18:50:16 10° SSE visible
06 Apr - 05:13:08 10° S 05:16:31 20° SE 05:19:55 10° E visible
06 Apr - 06:54:23 10° WSW 06:58:32 31° NW 07:02:42 10° NNE daylight
06 Apr - 17:25:15 10° NNW 17:29:36 36° NE 17:33:56 10° ESE daylight
06 Apr - 19:08:27 10° W 19:11:39 18° SW 19:14:49 10° S visible
07 Apr - 05:37:53 10° SSW 05:42:30 66° SE 05:47:09 10° NE visible
07 Apr - 17:50:51 10° NW 17:55:34 67° SW 18:00:16 10° SSE daylight
08 Apr - 04:23:21 10° S 04:26:27 17° SE 04:29:32 10° E visible
08 Apr - 06:04:13 10° WSW 06:08:28 35° NW 06:12:45 10° NNE daylight
08 Apr - 16:35:18 10° NNW 16:39:32 31° NE 16:43:44 10° ESE daylight
08 Apr - 18:18:04 10° W 18:21:34 20° SW 18:25:03 10° S visible
09 Apr - 04:47:52 10° SSW 04:52:26 57° SE 04:57:01 10° NE visible
09 Apr - 06:33:16 10° WNW 06:34:32 11° NW 06:35:48 10° NNW daylight
09 Apr - 17:00:45 10° NW 17:05:30 76° SW 17:10:14 10° SE daylight
10 Apr - 03:33:38 10° SSE 03:36:22 15° SE 03:39:06 10° E visible
10 Apr - 05:14:03 10° WSW 05:18:24 40° NW 05:22:47 10° NNE visible
10 Apr - 15:45:22 10° N 15:49:27 28° NE 15:53:31 10° ESE daylight
10 Apr - 17:27:44 10° WNW 17:31:29 23° SW 17:35:12 10° S daylight
11 Apr - 03:57:53 10° SSW 04:02:22 50° SE 04:06:53 10° NE visible
11 Apr - 05:42:29 10° WNW 05:44:26 12° NW 05:46:26 10° NNW daylight
11 Apr - 16:10:39 10° NW 16:15:26 86° SW 16:20:12 10° SE daylight
12 Apr - 02:44:00 10° SSE 02:46:18 13° SE 02:48:35 10° E visible
12 Apr - 04:23:54 10° SW 04:28:20 45° NW 04:32:48 10° NNE visible
12 Apr - 14:55:27 10° N 14:59:22 25° NE 15:03:16 10° ESE daylight
12 Apr - 16:37:26 10° WNW 16:41:24 26° SW 16:45:21 10° S daylight
